THOR ABLESTAR R/B       
1 00893U 64063A   19264.44565074  .00000009  00000-0 -15914-6 0  9992
2 00893  90.1579  26.8555 0024557 205.3679 222.1098 13.56121381718965
OPS 5798 (TRANSIT 5B-4) 
1 00897U 64063B   19263.98426878  .00000004  00000-0 -77694-5 0  9999
2 00897  90.1618  26.4786 0021005 128.2066   7.7612 13.53438497712760
CALSPHERE 1             
1 00900U 64063C   19265.52251507  .00000196  00000-0  20016-3 0  9996
2 00900  90.1532  24.0902 0029062 142.8867 281.4590 13.73275396733540
OPS 5798 DEB            
1 00901U 64063D   19264.42659816  .00000078  00000-0  99831-4 0  9991
2 00901  90.1644  26.6486 0021588  89.6678 337.2342 13.54640190713655
CALSPHERE 2             
1 00902U 64063E   19264.89906874  .00000007  00000-0 -28750-5 0  9998
2 00902  90.1627  26.6036 0018827 163.6132 316.4992 13.52675681524109
OPS 5798 DEB            
1 00903U 64063F   19265.33544081  .00000217  00000-0  21132-3 0  9994
2 00903  90.1574  22.4155 0022225   9.6867  43.8893 13.76608315736065